Location: Alafon
(8.4500°N, 4.2333°E)
Time: 16:39:41
(UTC+00:00)

Transit 2A - Pass Details

Date: 10 August 2021
Orbit: 595 x 964 km, 66.7° (Epoch: 18 September)

Event Time Altitude Azimuth Distance (km) Brightness Sun altitude
Rises 01:38:50 0° 173° (S) 2,867 - -53.6°
Reaches altitude 10° 01:41:39 10° 155° (SSE) 1,936 - -53.1°
Maximum altitude 01:44:43 19° 109° (ESE) 1,421 - -52.5°
Drops below altitude 10° 01:47:47 10° 63° (ENE) 1,923 - -51.9°
Sets 01:50:32 0° 45° (NE) 2,841 - -51.4°
